Terug naar catalogus

FENGYUN 1C DEB

ActiefSSO
NORAD 29932·DEBRIS·🇨🇳 China

Gelanceerd May 10, 1999 vanaf Taiyuan Satellite Launch Center

Loading…

Volgende Passages (komende 24 uur)

TLE

VersSource: Space-Track

Epoch: Sep 14, 2026, 12:29 UTC

1 29932U 99025JE  26257.52032325  .00000337  00000-0  18748-3 0  9998
2 29932  98.6313 265.1134 0037385 359.4064 153.6107 14.17061137 14342

Volg FENGYUN 1C DEB in realtime met AllMySat

Download on the App Store